This is the latest recevied weather packets stored in our database for station/object KD9NSC. If no packets are shown the sender has not sent any weather packets the latest 10 day(s).
| Time | Temp. | Humidity | Pressure | Rain* | Wind** | Luminosity | Snow |
|---|---|---|---|---|---|---|---|
| 1777915542 | 26.67° C | 45% | 1003.1 hPa | 0 mm | - | 325 W/m² | - |
| 1777915238 | 27.22° C | 43% | 1003.2 hPa | 0 mm | - | 131 W/m² | - |
| 1777914935 | 27.22° C | 42% | 1003.3 hPa | 0 mm | - | 164 W/m² | - |
| 1777914632 | 26.67° C | 46% | 1003.3 hPa | 0 mm | - | 82 W/m² | - |
| 1777914328 | 27.22° C | 45% | 1003.5 hPa | 0 mm | - | 241 W/m² | - |
| 1777914026 | 27.22° C | 42% | 1003.5 hPa | 0 mm | - | 207 W/m² | - |
| 1777913722 | 27.22° C | 45% | 1003.4 hPa | 0 mm | - | 228 W/m² | - |
| 1777913419 | 27.22° C | 43% | 1003.6 hPa | 0 mm | - | 216 W/m² | - |
| 1777913115 | 27.22° C | 45% | 1003.8 hPa | 0 mm | - | 300 W/m² | - |
| 1777912812 | 26.67° C | 45% | 1004 hPa | 0 mm | - | 397 W/m² | - |
| 1777912508 | 27.22° C | 44% | 1004.1 hPa | 0 mm | - | 405 W/m² | - |
| 1777912204 | 26.67° C | 46% | 1004.2 hPa | 0 mm | - | 522 W/m² | - |
| 1777911901 | 26.67° C | 45% | 1004.3 hPa | 0 mm | - | 519 W/m² | - |
| 1777911597 | 26.67° C | 45% | 1004.1 hPa | 0 mm | - | 371 W/m² | - |
| 1777911293 | 26.67° C | 45% | 1004.3 hPa | 0 mm | - | 445 W/m² | - |
| 1777910990 | 26.11° C | 47% | 1004.4 hPa | 0 mm | - | 508 W/m² | - |
| 1777910689 | 26.11° C | 44% | 1004.3 hPa | 0 mm | - | 509 W/m² | - |
| 1777910384 | 26.11° C | 44% | 1004.5 hPa | 0 mm | - | 503 W/m² | - |
| 1777910081 | 26.11° C | 45% | 1004.5 hPa | 0 mm | - | 497 W/m² | - |
| 1777909779 | 25.56° C | 44% | 1004.4 hPa | 0 mm | - | 492 W/m² | - |
| 1777909475 | 26.11° C | 42% | 1004.6 hPa | 0 mm | - | 437 W/m² | - |
| 1777909173 | 26.11° C | 45% | 1004.8 hPa | 0 mm | - | 478 W/m² | - |
| 1777908871 | 25.56° C | 45% | 1004.8 hPa | 0 mm | - | 474 W/m² | - |
| 1777908568 | 25.56° C | 47% | 1004.8 hPa | 0 mm | - | 325 W/m² | - |
| 1777908265 | 25.56° C | 43% | 1005 hPa | 0 mm | - | 252 W/m² | - |
* Rain latest hour (hover to see other rain measurements)
** Current wind speed in m/s (hover to see current wind gust speed)